Location: Colonie
(42.7179°N, 73.8335°W)
Time: 14:36:35
(UTC+00:00)

Daily predictions for brighter satellites

Satellite Brightness Start Highest point End
(mag) Time Altitude Azimuth Time Altitude Azimuth Time Altitude Azimuth
Cosmos 1726 Rocket 3.5 22:15:17 10° S 22:19:34 65° E 22:23:56 10° NNE
Okean O Rocket 1.6 22:15:21 10° SSE 22:19:42 79° ENE 22:24:04 10° N
SL-4 R/B 3.4 22:17:10 10° NW 22:19:52 20° N 22:22:41 10° ENE
Cosmos 44 3.7 22:16:40 10° SW 22:21:06 60° NW 22:25:50 10° NNE
Cosmos 1346 Rocket 4.3 22:19:01 10° NNE 22:21:42 17° ENE 22:24:23 10° ESE
Cosmos 2058 4.3 22:21:51 10° NNE 22:24:41 18° ENE 22:27:30 10° ESE
Cosmos 1758 Rocket 4.3 22:22:18 10° NNW 22:26:37 58° W 22:30:52 10° S
BREEZE-M R/B 4.1 22:23:25 10° WNW 22:26:40 35° N 22:32:33 10° ENE
Atlas Centaur 2 4.2 22:22:28 10° SW 22:29:19 32° S 22:36:34 10° ESE
NOAA 11 4.2 22:25:22 10° SSE 22:30:42 59° ENE 22:36:03 10° N
YAOGAN 6 3.7 22:27:50 10° S 22:31:24 51° W 22:35:02 10° NNW
Cosmos 1315 Rocket 4.2 22:29:02 10° SE 22:31:48 18° E 22:34:35 10° NE
Cosmos 1606 Rocket 4.1 22:31:48 10° SSW 22:36:07 64° W 22:40:31 10° N
Aureole 3 2.7 22:34:26 10° S 22:37:29 55° E 22:40:24 10° NNE
CORIOLIS 4.3 22:33:39 10° SSE 22:38:59 81° WSW 22:44:22 10° NNW
Cosmos 1980 Rocket 3.4 22:37:17 10° SE 22:41:12 20° E 22:44:54 11° ENE
Cosmos 1455 3.4 22:38:20 10° SE 22:41:16 22° E 22:44:14 10° NE
USA 305 3.7 22:39:38 10° NW 22:43:36 35° NNE 22:46:41 15° E
Cosmos 2297 Rocket 2.2 22:39:01 10° NNW 22:44:43 73° ENE 22:50:21 10° SSE
CZ-2C R/B 4.0 22:40:54 10° SE 22:45:51 31° ENE 22:50:42 10° N
In-Cosmos 22 Rocket 4.1 22:41:11 10° N 22:46:31 61° ENE 22:51:57 10° SSE
SKYMED 2 3.7 22:44:57 10° NNE 22:49:14 53° E 22:53:27 10° S
USA 306 3.6 22:46:09 10° NW 22:50:10 37° NNE 22:52:55 18° E
Okean-O 3.0 22:53:12 10° SE 22:57:20 40° ENE 23:01:29 10° N
Meteor 2-10 Rocket 3.7 22:52:45 10° SSE 22:57:51 50° E 23:02:48 10° NNE
SeaSat 1 4.1 23:00:01 15° NE 23:00:43 15° NE 23:03:34 10° N
Cosmos 1689 Rocket 1.8 22:59:32 10° NNE 23:02:25 69° ESE 23:05:17 10° S
Cosmos 1553 Rocket 4.0 22:56:13 10° S 23:02:33 76° E 23:08:49 10° N
Cosmos 1408 3.0 22:59:17 10° N 23:02:46 39° ENE 23:06:14 10° SSE
Meteor 2-15 4.4 22:58:19 10° S 23:04:22 63° E 23:10:24 10° NNE
Cosmos 2360 4.5 22:59:29 10° S 23:04:54 46° ESE 23:10:20 10° NE
H-2A R/B 2.9 23:00:20 10° SE 23:05:01 31° ENE 23:09:45 10° N
MOS 1 Rocket 4.1 23:03:40 10° NE 23:07:54 30° E 23:12:21 10° SSE
BREEZE-M R/B 4.4 23:01:58 10° WNW 23:09:10 36° N 23:10:40 22° NE
Cosmos 44 Rocket 3.5 23:08:56 10° S 23:13:29 47° ESE 23:16:15 22° NE
Cosmos 2058 Rocket 4.0 23:10:15 10° SSW 23:14:37 51° WNW 23:19:02 10° N
Cosmos 2278 4.1 23:09:38 10° S 23:14:52 39° ESE 23:18:42 17° NE
Lacrosse 5 3.7 23:12:32 10° NNW 23:15:48 17° N 23:17:47 14° NE
Cosmos 2219 3.9 23:12:56 10° NNW 23:18:36 58° WSW 23:24:12 10° S
Cosmos 1892 2.9 23:17:35 10° NNW 23:21:28 73° W 23:25:20 10° S
Cosmos 1939 Rocket 3.3 23:19:22 10° S 23:23:16 60° W 23:27:10 10° NNW
ARGOS 3.8 23:21:56 28° E 23:23:30 33° ENE 23:28:18 10° N
Cosmos 1076 Rocket 3.4 23:20:28 10° N 23:24:40 57° E 23:28:51 10° SSE
NOSS 3-4 (A) 4.4 23:18:47 10° NNW 23:25:08 37° NE 23:28:04 27° E
NOSS 3-4 (C) 4.4 23:18:53 10° NNW 23:25:15 36° NE 23:28:08 27° E
Cosmos 968 Rocket 3.7 23:20:11 10° NNW 23:25:24 74° WSW 23:30:31 10° SSE
Cosmos 2082 3.6 23:20:01 10° NNW 23:25:47 71° ENE 23:31:29 10° SSE
CZ-4B R/B 4.1 23:24:23 10° NNW 23:26:41 19° WNW 23:28:57 10° WSW
Cosmos 1745 Rocket 4.0 23:24:43 10° N 23:31:04 87° E 23:37:25 10° S
NOSS 3-3 (A) 3.9 23:27:00 10° SW 23:32:47 80° NW 23:38:34 14° NE
NOSS 3-3 (C) 3.9 23:27:06 10° SW 23:32:53 81° NW 23:38:38 14° NE
USA 307 2.8 23:29:53 10° NW 23:34:10 68° NE 23:35:04 51° E
USA 215 4.4 23:32:13 20° NE 23:35:06 28° N 23:40:25 10° NW
Cosmos 1825 2.0 23:32:40 10° N 23:36:27 68° E 23:37:07 54° SE
COSMO-SKYMED 1 3.6 23:33:05 10° N 23:37:14 46° WNW 23:41:23 10° SW
USA 308 2.8 23:34:52 10° NW 23:39:09 74° NE 23:39:51 58° E
Cosmos 2369 3.7 23:33:37 10° SSW 23:39:20 86° WNW 23:45:05 10° NNE
GPS 2-04 Rocket1 4.1 23:37:32 10° SW 23:41:00 27° S 23:41:13 27° SSE
Helios 1A Rocket 3.5 23:37:51 10° S 23:41:54 58° W 23:45:57 10° NNW
CSL-04 Rocket 3.6 23:39:38 10° SSE 23:45:07 67° ENE 23:50:36 10° N
OAO 2 Rocket 4.3 23:41:19 10° WSW 23:45:48 33° S 23:46:58 29° SSE
CZ-2D R/B 4.4 23:42:42 10° S 23:46:20 43° W 23:49:59 10° NNW
ATLAS 2AS CENTAUR R/B 3.3 23:40:13 10° NNW 23:47:11 39° NE 23:48:38 35° ENE
YAOGAN 1 2.7 23:43:35 10° S 23:47:54 75° WSW 23:52:14 10° NNW
Cosmos 2227 Rocket 3.4 23:43:50 10° NW 23:49:08 42° WSW 23:54:24 10° S
Cosmos 2263 Rocket 3.0 23:45:55 10° N 23:50:16 32° NE 23:50:16 32° NE
CZ-4 R/B 2.0 23:48:12 10° S 23:52:00 52° W 23:55:47 10° NNW
Cosmos 1812 Rocket 3.8 23:50:28 10° SSW 23:54:50 67° W 23:59:12 10° N
